Simultaneous Nadir Overpasses (SNOs) Predictions

Prediction of SNOs between AQUA and NPP Satellite Orbit:

Table of predicted SNOs for the next 14.0 days since TLE Epoch: 7/29/2016
Index Date (AQUA) Time (AQUA) Lat,Lon (AQUA) SZA (AQUA ) Date (NPP) Time (NPP) Lat,Lon (NPP) SZA (NPP ) Distance(km) Time Diff (sec)
1 07/29/2016 20:59:43 -73.60, -81.96 97.81 07/29/2016 20:58:35 -73.60, -81.95 97.75 0.39 68
2 07/29/2016 21:48:39 75.09, 89.24 80.53 07/29/2016 21:48:48 75.09, 89.24 80.52 0.10 9
3 08/01/2016 13:15:57 -74.33, 35.56 97.98 08/01/2016 13:15:13 -74.34, 35.63 97.96 2.36 44
4 08/01/2016 14:04:55 75.70,-153.21 80.48 08/01/2016 14:05:28 75.71,-153.12 80.43 2.75 33
5 08/04/2016 05:32:23 -74.49, 151.80 97.48 08/04/2016 05:32:04 -74.48, 151.78 97.45 0.61 19
6 08/04/2016 06:21:21 75.84, -36.90 80.99 08/04/2016 06:22:19 75.84, -36.90 80.94 0.27 58
7 08/06/2016 20:59:44 73.43, 97.68 84.39 08/06/2016 20:58:33 73.43, 97.67 84.46 0.35 71
8 08/06/2016 21:48:37 -75.24, -90.39 97.63 08/06/2016 21:48:42 -75.25, -90.30 97.66 2.82 5
9 08/09/2016 13:16:06 73.78,-145.69 84.73 08/09/2016 13:15:20 73.77,-145.75 84.79 2.18 46
10 08/09/2016 14:05:00 -75.52, 26.29 97.23 08/09/2016 14:05:30 -75.53, 26.33 97.26 1.19 30
11 08/12/2016 05:32:15 74.74, -27.56 84.42 08/12/2016 05:31:53 74.75, -27.49 84.42 2.28 22




NCC Satellite Simultaneous Nadir Overpasses (SNOs) Prediction Service
